LA4GY-1 Weather Reports


Display with metric or nautical units.
time (UTC)temp
F
wind
direction
speed
MPH
gust
MPH
rain 1hr
in
rain 24hr
in
rain mn
in
humidity
%
barometer
mb
20260905045313 53 330 0.0 0.0 0.00 0.02 0.00 88 999.3
20260905044313 53 330 0.0 0.0 0.00 0.02 0.00 88 999.3
20260905043243 52 317 0.0 0.0 0.00 0.02 0.00 87 999.3
20260905042213 52 331 0.0 0.0 0.00 0.02 0.00 88 999.2
20260905041143 52 332 0.0 0.0 0.00 0.02 0.00 88 999.2
20260905040113 52 337 0.0 0.0 0.00 0.02 0.00 88 999.1
20260905035113 52 337 0.0 0.0 0.00 0.02 0.00 88 999.1
20260905034113 52 336 0.0 0.0 0.00 0.02 0.00 88 999.1
20260905033043 52 332 0.0 0.0 0.00 0.02 0.00 88 999.1
20260905032043 52 328 0.0 0.0 0.00 0.02 0.00 87 999.0
20260905031013 52 331 0.0 0.0 0.00 0.02 0.00 87 998.9
20260905030013 52 41 0.0 0.0 0.00 0.02 0.00 87 998.9
20260905024943 52 355 0.0 0.0 0.00 0.02 0.00 87 999.0
20260905023943 52 328 0.0 0.0 0.00 0.02 0.00 87 998.9
20260905022943 53 333 0.0 0.0 0.00 0.02 0.00 87 998.9
20260905021943 53 346 0.0 0.0 0.00 0.02 0.00 87 998.7
20260905020943 53 355 0.0 0.0 0.00 0.02 0.00 86 998.6
20260905015943 53 336 0.0 0.0 0.00 0.02 0.00 86 998.7
20260905014913 54 334 0.0 0.0 0.00 0.02 0.00 85 998.7
20260905013843 54 355 0.0 0.0 0.00 0.02 0.00 85 998.7
20260905012843 54 355 0.0 0.0 0.00 0.02 0.00 85 998.8
20260905011843 54 313 0.0 0.0 0.00 0.02 0.00 85 998.8
20260905010813 54 322 0.0 0.0 0.00 0.02 0.00 85 998.8
20260905005813 54 326 0.0 0.0 0.00 0.02 0.00 84 998.7
20260905004813 54 336 0.0 0.0 0.00 0.02 0.00 84 998.7
20260905003813 54 336 0.0 0.0 0.00 0.02 0.00 84 998.7
20260905002813 54 336 0.0 0.0 0.00 0.02 0.00 84 998.7
20260905001813 54 339 0.0 0.0 0.00 0.02 0.00 85 998.7
20260905000813 54 321 0.0 0.0 0.00 0.02 0.00 84 998.7
20260904235813 54 339 0.0 0.0 0.00 0.02 0.00 84 998.7
20260904234743 54 355 0.0 0.0 0.00 0.02 0.00 85 998.8
20260904233713 54 355 0.0 0.0 0.00 0.02 0.00 85 998.8
20260904232712 55 355 0.0 0.0 0.00 0.02 0.00 84 998.8
20260904231712 55 355 0.0 0.0 0.00 0.02 0.00 84 998.9
20260904230712 55 355 0.0 0.0 0.00 0.02 0.00 84 998.9
20260904225712 55 355 0.0 0.0 0.00 0.02 0.00 85 999.0
20260904224712 55 17 0.0 0.0 0.00 0.02 0.00 85 999.1
20260904223712 55 19 0.0 0.0 0.00 0.02 0.00 85 998.9
20260904222712 55 325 0.0 0.0 0.00 0.02 0.00 85 998.9
20260904221712 55 325 0.0 0.0 0.00 0.02 0.00 84 998.8
20260904220712 55 325 0.0 0.0 0.00 0.02 0.00 84 998.9
20260904215642 55 336 0.0 0.0 0.00 0.02 0.02 85 998.9
20260904214642 55 332 0.0 0.0 0.00 0.02 0.02 85 998.8
20260904213642 55 332 0.0 0.0 0.00 0.02 0.02 85 998.7
20260904212642 54 332 0.0 0.0 0.00 0.02 0.02 86 998.7
20260904211612 54 332 0.0 0.0 0.00 0.02 0.02 87 998.6
20260904210542 54 336 0.0 0.0 0.00 0.02 0.02 87 998.6
20260904205542 54 324 0.0 0.0 0.00 0.02 0.02 87 998.5
20260904204512 54 345 0.0 0.0 0.00 0.02 0.02 87 998.5
20260904203512 54 329 0.0 0.0 0.00 0.02 0.02 87 998.5
20260904202512 54 17 0.0 0.0 0.00 0.02 0.02 87 998.6
20260904201512 54 346 0.0 0.0 0.00 0.02 0.02 88 998.6
20260904200512 53 340 0.0 0.0 0.00 0.02 0.02 89 998.7
20260904195512 53 333 0.0 0.0 0.00 0.02 0.02 89 998.6
20260904194442 53 325 0.0 0.0 0.00 0.02 0.02 89 998.7
20260904193412 53 340 0.0 0.0 0.00 0.02 0.02 89 998.6
20260904192342 53 348 0.0 0.0 0.00 0.02 0.02 88 998.6
20260904191342 54 348 0.0 0.0 0.00 0.02 0.02 88 998.5
20260904190312 54 348 0.0 0.0 0.00 0.02 0.02 88 998.4
20260904185312 54 348 0.0 0.0 0.00 0.02 0.02 88 998.4
20260904184312 54 348 0.0 0.0 0.00 0.02 0.02 89 998.4
20260904183312 54 327 0.0 0.0 0.00 0.02 0.02 89 998.4
20260904182312 54 355 0.0 0.0 0.00 0.02 0.02 89 998.4
20260904181242 55 313 0.0 0.0 0.00 0.02 0.02 89 998.3
20260904180212 55 313 0.0 0.0 0.00 0.02 0.02 89 998.2
20260904175212 55 335 0.0 0.0 0.00 0.02 0.02 88 998.2
20260904174212 55 355 0.0 0.0 0.00 0.02 0.02 88 998.2
20260904173142 56 355 0.0 0.0 0.00 0.02 0.02 88 998.3
20260904172142 56 328 0.0 0.0 0.00 0.02 0.02 88 998.2
20260904171142 56 340 0.0 0.0 0.00 0.03 0.02 88 998.2
20260904170142 56 325 0.0 0.0 0.00 0.04 0.02 88 998.2
20260904165142 56 310 0.0 0.0 0.00 0.04 0.02 89 998.2
20260904164142 56 317 0.0 0.0 0.00 0.04 0.02 89 998.3
20260904163142 56 34 0.0 0.0 0.00 0.04 0.02 88 998.3
20260904162142 56 34 0.0 0.0 0.00 0.04 0.02 88 998.3
20260904161141 57 34 0.0 0.0 0.00 0.04 0.02 88 998.3
20260904160141 57 34 0.0 0.0 0.00 0.04 0.02 88 998.2
20260904155111 58 34 0.0 0.0 0.02 0.04 0.02 88 998.1
20260904154111 58 14 0.0 0.0 0.02 0.04 0.02 90 998.2
20260904153041 58 348 0.0 0.0 0.02 0.04 0.02 89 998.2
20260904152041 58 329 0.0 0.0 0.02 0.04 0.02 87 998.4
20260904151041 59 329 0.0 0.0 0.02 0.04 0.02 86 998.4
20260904150011 60 328 0.0 0.0 0.02 0.04 0.02 83 998.4
20260904145011 61 326 0.0 0.0 0.00 0.02 0.00 79 998.4
20260904144011 63 72 0.0 0.0 0.00 0.02 0.00 77 998.4
20260904142941 64 8 0.0 0.0 0.00 0.02 0.00 70 998.4
20260904141941 64 71 0.0 0.0 0.00 0.02 0.00 69 998.3
20260904140941 63 101 0.0 0.0 0.00 0.02 0.00 70 998.4
20260904135911 63 116 0.0 0.0 0.00 0.02 0.00 74 998.3
20260904134911 63 116 0.0 0.0 0.00 0.02 0.00 73 998.4
20260904133911 63 115 0.0 0.0 0.00 0.02 0.00 73 998.5
20260904132911 63 116 0.0 0.0 0.00 0.02 0.00 72 998.5
20260904131841 63 115 0.0 0.0 0.00 0.02 0.00 70 998.7
20260904130811 63 116 0.0 0.0 0.00 0.02 0.00 73 998.8
20260904125811 63 167 0.0 0.0 0.00 0.02 0.00 74 998.8
20260904124811 64 168 0.0 0.0 0.00 0.02 0.00 73 998.8
20260904123741 64 75 0.0 0.0 0.00 0.02 0.00 75 998.8
20260904122741 64 120 0.0 0.0 0.00 0.02 0.00 78 998.9
20260904121741 63 168 0.0 0.0 0.00 0.02 0.00 78 999.0
20260904120711 62 169 0.0 0.0 0.00 0.02 0.00 79 999.1
20260904115711 62 98 0.0 0.0 0.00 0.02 0.00 82 999.1
20260904114711 62 98 0.0 0.0 0.00 0.02 0.00 79 999.2
20260904113711 62 160 0.0 0.0 0.00 0.02 0.00 81 999.2
20260904112711 62 160 0.0 0.0 0.00 0.02 0.00 82 999.3
20260904111641 60 307 0.0 0.0 0.00 0.02 0.00 86 999.3
20260904110641 59 318 0.0 0.0 0.00 0.02 0.00 86 999.4
20260904105641 59 103 0.0 0.0 0.00 0.02 0.00 87 999.4
20260904104641 59 157 0.0 0.0 0.00 0.02 0.00 86 999.5
20260904103641 59 157 0.0 0.0 0.00 0.02 0.00 86 999.6
20260904102611 58 157 0.0 0.0 0.00 0.02 0.00 87 999.7
20260904101611 58 157 0.0 0.0 0.00 0.02 0.00 87 999.6
20260904100541 58 157 0.0 0.0 0.00 0.02 0.00 86 999.7
20260904095541 58 157 0.0 0.0 0.00 0.02 0.00 85 999.9
20260904094541 59 157 0.0 0.0 0.00 0.02 0.00 85 999.8
20260904093541 58 157 0.0 0.0 0.00 0.02 0.00 85 999.9
20260904092541 58 158 0.0 0.0 0.00 0.02 0.00 89 999.9
20260904091541 57 157 0.0 0.0 0.00 0.02 0.00 89 999.9
20260904090540 56 156 0.0 0.0 0.00 0.02 0.00 89 1000.0
20260904085510 56 155 0.0 0.0 0.00 0.02 0.00 91 1000.1
20260904084440 55 159 0.0 0.0 0.00 0.02 0.00 91 1000.2
20260904083440 55 166 0.0 0.0 0.00 0.02 0.00 91 1000.1
20260904082410 55 174 0.0 0.0 0.00 0.02 0.00 91 1000.0
20260904081340 55 133 0.0 0.0 0.00 0.02 0.00 91 1000.1
20260904080340 55 129 0.0 0.0 0.00 0.02 0.00 91 1000.0
20260904075310 55 145 0.0 0.0 0.00 0.02 0.00 91 1000.2
20260904074240 55 111 0.0 0.0 0.00 0.02 0.00 92 1000.2
20260904073240 55 121 0.0 0.0 0.00 0.02 0.00 92 1000.3
20260904072210 55 159 0.0 0.0 0.00 0.02 0.00 92 1000.3
20260904071210 55 159 0.0 0.0 0.00 0.02 0.00 92 1000.3
20260904070210 55 158 0.0 0.0 0.00 0.02 0.00 93 1000.3
20260904065140 54 156 0.0 0.0 0.00 0.02 0.00 93 1000.4
20260904064110 54 156 0.0 0.0 0.00 0.02 0.00 92 1000.5
20260904063040 54 122 0.0 0.0 0.00 0.02 0.00 93 1000.4
20260904062040 54 121 0.0 0.0 0.00 0.02 0.00 93 1000.4
20260904061010 54 100 0.0 0.0 0.00 0.02 0.00 93 1000.5
20260904060010 54 339 0.0 0.0 0.00 0.03 0.00 93 1000.5
20260904055010 54 340 0.0 0.0 0.00 0.03 0.00 93 1000.6
20260904053940 53 325 0.0 0.0 0.00 0.04 0.00 93 1000.7
20260904052940 53 319 0.0 0.0 0.00 0.04 0.00 93 1000.7
20260904051940 53 319 0.0 0.0 0.00 0.05 0.00 93 1000.7
20260904050940 53 319 0.0 0.0 0.00 0.06 0.00 93 1000.7
20260904045910 53 317 0.0 0.0 0.00 0.06 0.00 93 1000.7